Location: Rostock
(54.0884°N, 12.1234°E)
Time: 22:34:46
(UTC+01:00)

ISS - Pass Details

Date: 14 November 2017
Orbit: 402 x 407 km, 51.6° (Epoch: 19 November)

Event Time Altitude Azimuth Distance (km) Brightness Sun altitude
Exits shadow 05:45:24 21° 217° (SW) 959 -2.2 -16.2°
Maximum altitude 05:45:41 22° 209° (SSW) 952 -2.2 -16.2°
Drops below altitude 10° 05:48:15 10° 157° (SSE) 1,452 -0.6 -15.8°
Sets 05:50:36 0° 141° (SE) 2,308 0.8 -15.5°
